Ballincollig, Ireland

10:46 AM GMT on November 16, 2018 (GMT +0000)
Ballincollig

Weather History for 03955 - October, 2009

Change the Weather History Date:

Tuesday, October 6, 2009

  Actual Average Record
Temperature  
Mean Temperature 53 °F -  
Max Temperature 60 °F 55 °F - ()
Min Temperature 46 °F 45 °F - ()
Degree Days  
Heating Degree Days 12    
Growing Degree Days 3 (Base 50)    
Moisture  
Dew Point 55 °F    
Average Humidity 97    
Maximum Humidity 100    
Minimum Humidity 76    
Precipitation  
Precipitation 1.18 in 0.16 in - ()
Sea Level Pressure  
Sea Level Pressure 29.57 in    
Wind  
Wind Speed 10 mph ()    
Max Wind Speed 23 mph    
Max Gust Speed -    
Visibility 2.7 miles    
Events Fog , Rain    
T = Trace of Precipitation, MM = Missing Value Source: Averaged Metar Reports

Daily Weather History Graph

Daily Weather History Graph

Search for Another Location

Airport or City:

Astronomy

Oct. 06, 2009 Rise Set
Actual Time 7:43 AM IST 6:59 PM IST
Civil Twilight 7:09 AM IST 7:33 PM IST
Nautical Twilight 6:30 AM IST 8:12 PM IST
Astronomical Twilight 5:50 AM IST 8:51 PM IST
Moon 7:19 PM IST (10/6) 10:39 AM IST (10/6)
Length of Visible Light 12h 23m
Length of Day
11h 16m
Waning Gibbous, 95% of the Moon is Illuminated
Oct 6
Waning Gibbous
Oct 11
Last Quarter
Oct 18
New
Oct 26
First Quarter
Nov 2
Full

Hourly Weather History & Observations

Time (IST) Temp. Windchill Dew Point Humidity Pressure Visibility Wind Dir Wind Speed Gust Speed Precip Events Conditions
12:00 AM 55.4 °F - 55.4 °F 100% 29.62 in 0.4 mi ESE 10.4 mph - N/A Fog , Rain Light Rain
12:30 AM 55.4 °F - 55.4 °F 100% 29.62 in 0.1 mi ESE 9.2 mph - N/A Fog , Rain Light Rain
1:00 AM 56 °F - 56 °F 98% 29.62 in 0 mi ESE 8.9 mph - - Rain Light Rain
1:00 AM 55.4 °F - 55.4 °F 100% 29.62 in 0.1 mi ESE 9.2 mph - N/A Fog , Rain Light Rain
1:30 AM 55.4 °F - 55.4 °F 100% 29.59 in 0.1 mi East 10.4 mph - N/A Fog , Rain Light Rain
2:00 AM 55.4 °F - 55.4 °F 100% 29.59 in 0.1 mi East 6.9 mph - N/A Fog , Rain Light Rain
2:30 AM 57.2 °F - 57.2 °F 100% 29.59 in 0.1 mi ESE 5.8 mph - N/A Fog , Rain Light Rain
3:00 AM 57.2 °F - 57.2 °F 100% 29.56 in 0.1 mi SE 5.8 mph - N/A Fog , Rain Light Rain
3:30 AM 57.2 °F - 57.2 °F 100% 29.53 in 0.1 mi SE 6.9 mph - N/A Fog , Rain Light Rain
4:00 AM 57.2 °F - 57.2 °F 100% 29.53 in 0.1 mi ESE 4.6 mph - N/A Fog , Rain Light Rain
4:30 AM 57.2 °F - 57.2 °F 100% 29.50 in 0.2 mi SE 5.8 mph - N/A Fog , Rain Light Rain
5:00 AM 57.2 °F - 57.2 °F 100% 29.50 in 0.2 mi SSE 6.9 mph - N/A Fog , Rain Light Rain
5:30 AM 57.2 °F - 57.2 °F 100% 29.50 in 0.2 mi SSE 5.8 mph - N/A Fog , Rain Light Rain
6:00 AM 59.0 °F - 59.0 °F 100% 29.50 in 0.7 mi SSE 4.6 mph - N/A Rain Light Rain
6:30 AM 59.0 °F - 59.0 °F 100% 29.50 in 0.5 mi South 4.6 mph - N/A Fog , Rain Rain
7:00 AM 59 °F - 59 °F 98% 29.49 in 0 mi South 4.5 mph - - Rain Rain
7:00 AM 59.0 °F - 59.0 °F 100% 29.47 in 0.4 mi South 4.6 mph - N/A Fog , Rain Light Rain
7:30 AM 59.0 °F - 59.0 °F 100% 29.47 in 0.2 mi SSW 11.5 mph - N/A Fog , Rain Light Rain
8:00 AM 59.0 °F - 59.0 °F 100% 29.47 in 0.2 mi SSW 11.5 mph - N/A Fog , Rain Light Rain
8:30 AM 59.0 °F - 59.0 °F 100% 29.47 in 0.7 mi SSW 11.5 mph - N/A Rain Light Rain
9:00 AM 59.0 °F - 59.0 °F 100% 29.47 in 0.2 mi SW 9.2 mph - N/A Fog , Rain Light Rain
9:30 AM 60.8 °F - 60.8 °F 100% 29.50 in 0.2 mi SW 9.2 mph - N/A Fog , Rain Light Rain
10:00 AM 60.8 °F - 60.8 °F 100% 29.50 in 0.4 mi SW 9.2 mph - N/A Fog , Rain Light Rain
10:30 AM 60.8 °F - 60.8 °F 100% 29.50 in 1.1 mi WSW 6.9 mph - N/A Rain Light Rain
11:00 AM 60.8 °F - 60.8 °F 100% 29.50 in 1.2 mi SW 4.6 mph - N/A Rain Light Rain
11:30 AM 60.8 °F - 60.8 °F 100% 29.50 in 0.5 mi West 4.6 mph - N/A Fog , Rain Light Rain
12:00 PM 59.0 °F - 59.0 °F 100% 29.50 in 1.0 mi North 8.1 mph - N/A Rain Light Rain
12:30 PM 59.0 °F - 59.0 °F 100% 29.50 in 1.9 mi North 8.1 mph - N/A Rain Light Rain
1:00 PM 58 °F - 58 °F 100% 29.52 in 2 mi North 13.4 mph - - Rain Light Rain
1:00 PM 59.0 °F - 59.0 °F 100% 29.50 in 1.9 mi North 12.7 mph - N/A Rain Light Rain
1:30 PM 57.2 °F - 57.2 °F 100% 29.53 in 1.6 mi North 13.8 mph - N/A Rain Light Rain
2:00 PM 57.2 °F - 57.2 °F 100% 29.53 in 1.2 mi North 12.7 mph - N/A Rain Light Rain
2:30 PM 55.4 °F - 55.4 °F 100% 29.53 in 1.9 mi North 16.1 mph - N/A Rain Light Rain
3:00 PM 55.4 °F - 55.4 °F 100% 29.53 in 1.9 mi NNE 18.4 mph - N/A Rain Rain
3:30 PM 55.4 °F - 55.4 °F 100% 29.53 in 3.7 mi NNE 17.3 mph - N/A Rain Light Rain
4:00 PM 55.4 °F - 55.4 °F 100% 29.53 in 6.2 mi NNE 15.0 mph - N/A Rain Light Rain
4:30 PM 55.4 °F - 55.4 °F 100% 29.53 in 6.2 mi North 16.1 mph - N/A Rain Light Rain
5:00 PM 53.6 °F - 53.6 °F 100% 29.53 in 6.2 mi North 16.1 mph - N/A Rain Light Rain
5:30 PM 51.8 °F - 51.8 °F 100% 29.56 in 6.2 mi North 18.4 mph - N/A Rain Light Rain
6:00 PM 51.8 °F - 51.8 °F 100% 29.56 in 6.2 mi North 15.0 mph - N/A Rain Light Rain
6:30 PM 50.0 °F - 50.0 °F 100% 29.59 in 6.2 mi North 17.3 mph - N/A Rain Light Rain
7:00 PM 50 °F - 49 °F 95% 29.65 in 16 mi North 17.9 mph - - Rain Light Rain
7:00 PM 50.0 °F - 48.2 °F 94% 29.62 in 6.2 mi North 17.3 mph - N/A   Mostly Cloudy
7:30 PM 50.0 °F - 48.2 °F 94% 29.65 in 6.2 mi North 17.3 mph - N/A   Mostly Cloudy
8:00 PM 50.0 °F - 48.2 °F 94% 29.68 in 6.2 mi North 19.6 mph - N/A   Scattered Clouds
8:30 PM 50.0 °F - 48.2 °F 94% 29.71 in 6.2 mi NNW 20.7 mph - N/A   Mostly Cloudy
9:00 PM 50.0 °F - 46.4 °F 87% 29.74 in 6.2 mi NNW 21.9 mph - N/A   Mostly Cloudy
9:30 PM 48.2 °F - 44.6 °F 87% 29.74 in 6.2 mi NNW 23.0 mph - N/A   Mostly Cloudy
10:00 PM 48.2 °F - 42.8 °F 82% 29.74 in 6.2 mi NNW 21.9 mph - N/A   Scattered Clouds
10:30 PM 46.4 °F 39.8 °F 42.8 °F 87% 29.77 in 6.2 mi North 16.1 mph - N/A   Partly Cloudy
11:00 PM 46.4 °F 39.2 °F 41.0 °F 81% 29.77 in 6.2 mi North 18.4 mph - N/A   Partly Cloudy
11:30 PM 46.4 °F 39.0 °F 39.2 °F 76% 29.80 in 6.2 mi NNW 19.6 mph - N/A   Partly Cloudy